When you browse on this site, cookies collect data to enhance your experience and personalize the content and advertising you see.
Visit our Privacy Policy to learn more. By continuing to use the site, you agree to this use of cookies and data.
  • In Austria
  • List of Countries
  • For 7 days
  • Water Temperature
  • Weather Map
  • News
  • Weather Widgets
  • user-avatar
    Login

    Hourly Weather Dobrovolskoe

    Today, 7 June, Sunday

    Time Temperature Precipitation Wind Pressure Humidity
    00:00 +16°C° 0 mm 1 mps 743 mmHg 60%
    01:00 +16°C° 0 mm 1 mps 743 mmHg 58%
    02:00 +16°C° 0 mm 2 mps 743 mmHg 57%
    03:00 +16°C° 0 mm 2 mps 744 mmHg 56%
    04:00 +16°C° 0 mm 3 mps 744 mmHg 60%
    05:00 +17°C° 0 mm 3 mps 744 mmHg 56%
    06:00 +18°C° 0 mm 3 mps 744 mmHg 53%
    07:00 +20°C° 0 mm 3 mps 744 mmHg 49%
    08:00 +21°C° 0 mm 3 mps 744 mmHg 44%
    09:00 +24°C° 0 mm 3 mps 744 mmHg 39%
    10:00 +25°C° 0 mm 4 mps 744 mmHg 33%
    11:00 +26°C° 0 mm 4 mps 744 mmHg 31%
    12:00 +27°C° 0 mm 4 mps 744 mmHg 28%
    13:00 +28°C° 0 mm 4 mps 744 mmHg 25%
    14:00 +28°C° 0 mm 4 mps 744 mmHg 25%
    15:00 +28°C° 0 mm 3 mps 743 mmHg 24%
    16:00 +28°C° 0 mm 3 mps 743 mmHg 24%
    17:00 +27°C° 0 mm 3 mps 743 mmHg 27%
    18:00 +26°C° 0 mm 2 mps 743 mmHg 30%
    19:00 +25°C° 0 mm 2 mps 742 mmHg 33%
    20:00 +23°C° 0 mm 2 mps 742 mmHg 34%
    21:00 +21°C° 0 mm 2 mps 743 mmHg 35%
    22:00 +19°C° 0 mm 2 mps 743 mmHg 36%
    23:00 +18°C° 0 mm 2 mps 743 mmHg 38%

    Tomorrow, 8 June, Monday

    Time Temperature Precipitation Wind Pressure Humidity
    00:00 +18°C° 0 mm 3 mps 742 mmHg 39%
    01:00 +17°C° 0 mm 3 mps 742 mmHg 40%
    02:00 +17°C° 0 mm 3 mps 743 mmHg 43%
    03:00 +17°C° 0 mm 3 mps 743 mmHg 45%
    04:00 +16°C° 0 mm 3 mps 743 mmHg 47%
    05:00 +18°C° 0 mm 3 mps 743 mmHg 45%
    06:00 +20°C° 0 mm 3 mps 743 mmHg 42%
    07:00 +22°C° 0 mm 3 mps 743 mmHg 39%
    08:00 +25°C° 0 mm 3 mps 743 mmHg 34%
    09:00 +26°C° 0 mm 4 mps 743 mmHg 30%
    10:00 +28°C° 0 mm 4 mps 744 mmHg 25%
    11:00 +28°C° 0 mm 5 mps 743 mmHg 25%
    12:00 +28°C° 0 mm 5 mps 743 mmHg 25%
    13:00 +29°C° 0 mm 5 mps 743 mmHg 25%
    14:00 +28°C° 0 mm 5 mps 743 mmHg 25%
    15:00 +28°C° 0 mm 5 mps 743 mmHg 26%
    16:00 +28°C° 0 mm 4 mps 743 mmHg 26%
    17:00 +27°C° 0 mm 4 mps 743 mmHg 30%
    18:00 +26°C° 0 mm 4 mps 743 mmHg 34%
    19:00 +25°C° 0 mm 3 mps 743 mmHg 38%
    20:00 +24°C° 0 mm 3 mps 743 mmHg 39%
    21:00 +22°C° 0 mm 3 mps 744 mmHg 40%
    22:00 +21°C° 0 mm 3 mps 744 mmHg 41%
    23:00 +20°C° 0 mm 3 mps 744 mmHg 42%

    Day after tomorrow, 9 June, Tuesday

    Time Temperature Precipitation Wind Pressure Humidity
    00:00 +19°C° 0 mm 3 mps 744 mmHg 43%
    01:00 +19°C° 0 mm 3 mps 744 mmHg 44%
    02:00 +19°C° 0 mm 3 mps 744 mmHg 44%
    03:00 +19°C° 0 mm 3 mps 745 mmHg 45%
    04:00 +19°C° 0 mm 3 mps 745 mmHg 45%
    05:00 +20°C° 0 mm 3 mps 745 mmHg 45%
    06:00 +21°C° 0 mm 4 mps 745 mmHg 46%
    07:00 +22°C° 0 mm 4 mps 746 mmHg 46%
    08:00 +23°C° 0 mm 4 mps 746 mmHg 43%
    09:00 +25°C° 0 mm 5 mps 746 mmHg 39%
    10:00 +26°C° 0 mm 5 mps 746 mmHg 36%
    11:00 +28°C° 0 mm 5 mps 746 mmHg 32%
    12:00 +29°C° 0 mm 4 mps 746 mmHg 28%
    13:00 +30°C° 0 mm 4 mps 746 mmHg 24%
    14:00 +30°C° 0 mm 4 mps 746 mmHg 23%
    15:00 +30°C° 0 mm 4 mps 746 mmHg 23%
    16:00 +30°C° 0 mm 4 mps 746 mmHg 23%
    17:00 +29°C° 0 mm 4 mps 746 mmHg 27%
    18:00 +28°C° 0 mm 4 mps 746 mmHg 31%
    19:00 +27°C° 0 mm 3 mps 745 mmHg 35%
    20:00 +26°C° 0 mm 3 mps 746 mmHg 38%
    21:00 +23°C° 0 mm 4 mps 746 mmHg 42%
    22:00 +22°C° 0 mm 4 mps 746 mmHg 45%
    23:00 +21°C° 0 mm 3 mps 746 mmHg 48%

    10 June, Wednesday

    Time Temperature Precipitation Wind Pressure Humidity
    00:00 +20°C° 0 mm 3 mps 746 mmHg 51%
    01:00 +19°C° 0 mm 2 mps 746 mmHg 54%
    02:00 +19°C° 0 mm 2 mps 746 mmHg 57%
    03:00 +18°C° 0 mm 2 mps 746 mmHg 60%
    04:00 +18°C° 0 mm 2 mps 746 mmHg 63%
    05:00 +20°C° 0 mm 3 mps 746 mmHg 59%
    06:00 +22°C° 0 mm 3 mps 747 mmHg 55%
    07:00 +25°C° 0 mm 3 mps 747 mmHg 50%
    08:00 +26°C° 0 mm 3 mps 747 mmHg 45%
    09:00 +28°C° 0 mm 3 mps 747 mmHg 40%
    10:00 +29°C° 0 mm 3 mps 747 mmHg 35%
    11:00 +29°C° 0 mm 3 mps 747 mmHg 35%
    12:00 +29°C° 0 mm 3 mps 746 mmHg 35%
    13:00 +29°C° 0 mm 3 mps 746 mmHg 34%
    14:00 +29°C° 0 mm 3 mps 746 mmHg 34%
    15:00 +30°C° 0 mm 3 mps 746 mmHg 34%
    16:00 +30°C° 0 mm 3 mps 746 mmHg 33%
    17:00 +29°C° 0 mm 3 mps 746 mmHg 36%
    18:00 +28°C° 0 mm 3 mps 746 mmHg 39%
    19:00 +28°C° 0 mm 3 mps 746 mmHg 42%
    20:00 +26°C° 0 mm 3 mps 746 mmHg 44%
    21:00 +24°C° 0 mm 3 mps 746 mmHg 47%
    22:00 +21°C° 0 mm 3 mps 746 mmHg 49%
    23:00 +21°C° 0 mm 3 mps 746 mmHg 49%

    11 June, Thursday

    Time Temperature Precipitation Wind Pressure Humidity
    00:00 +20°C° 0 mm 2 mps 746 mmHg 49%
    01:00 +20°C° 0 mm 2 mps 746 mmHg 49%
    02:00 +19°C° 0 mm 2 mps 746 mmHg 50%
    03:00 +19°C° 0 mm 2 mps 745 mmHg 51%
    04:00 +18°C° 0 mm 2 mps 745 mmHg 52%
    05:00 +20°C° 0 mm 2 mps 745 mmHg 48%
    06:00 +23°C° 0 mm 2 mps 746 mmHg 43%
    07:00 +25°C° 0 mm 2 mps 746 mmHg 38%
    08:00 +26°C° 0 mm 1 mps 745 mmHg 35%
    09:00 +28°C° 0 mm 1 mps 745 mmHg 31%
    10:00 +29°C° 0 mm 1 mps 745 mmHg 27%
    11:00 +30°C° 0 mm 1 mps 745 mmHg 25%
    12:00 +30°C° 0 mm 1 mps 745 mmHg 24%
    13:00 +31°C° 0 mm 1 mps 745 mmHg 22%
    14:00 +32°C° 0 mm 1 mps 744 mmHg 22%
    15:00 +32°C° 0 mm 1 mps 744 mmHg 21%
    16:00 +32°C° 0 mm 1 mps 743 mmHg 20%
    17:00 +31°C° 0 mm 2 mps 743 mmHg 24%
    18:00 +30°C° 0 mm 2 mps 743 mmHg 27%
    19:00 +29°C° 0 mm 2 mps 742 mmHg 31%
    20:00 +27°C° 0 mm 2 mps 742 mmHg 33%
    21:00 +25°C° 0 mm 2 mps 742 mmHg 35%
    22:00 +24°C° 0 mm 2 mps 742 mmHg 37%
    23:00 +23°C° 0 mm 2 mps 742 mmHg 44%

    12 June, Friday

    Time Temperature Precipitation Wind Pressure Humidity
    00:00 +21°C° 0 mm 2 mps 742 mmHg 51%
    01:00 +21°C° 0 mm 1 mps 741 mmHg 57%
    02:00 +21°C° 0 mm 1 mps 741 mmHg 57%
    03:00 +21°C° 0 mm 1 mps 741 mmHg 57%
    04:00 +20°C° 0 mm 1 mps 741 mmHg 57%
    05:00 +22°C° 0 mm 1 mps 741 mmHg 50%
    06:00 +24°C° 0 mm 1 mps 741 mmHg 44%
    07:00 +27°C° 0 mm 1 mps 741 mmHg 38%
    08:00 +28°C° 0 mm 2 mps 741 mmHg 33%
    09:00 +29°C° 0 mm 2 mps 740 mmHg 29%
    10:00 +31°C° 0 mm 3 mps 740 mmHg 25%
    11:00 +31°C° 0 mm 3 mps 740 mmHg 23%
    12:00 +33°C° 0 mm 3 mps 740 mmHg 21%
    13:00 +34°C° 0 mm 3 mps 739 mmHg 19%
    14:00 +34°C° 0 mm 3 mps 739 mmHg 20%
    15:00 +33°C° 0 mm 4 mps 739 mmHg 20%
    16:00 +33°C° 0 mm 4 mps 738 mmHg 21%
    17:00 +31°C° 0 mm 3 mps 738 mmHg 26%
    18:00 +30°C° 0 mm 3 mps 737 mmHg 31%
    19:00 +28°C° 0 mm 3 mps 737 mmHg 36%
    20:00 +27°C° 0 mm 2 mps 737 mmHg 40%
    21:00 +25°C° 0 mm 1 mps 737 mmHg 43%
    22:00 +23°C° 0 mm 1 mps 737 mmHg 47%
    23:00 +23°C° 0 mm 1 mps 736 mmHg 48%
    Show more